| time (UTC) | temp F | wind direction | speed knots | gust knots | rain 1hr in | rain 24hr in | rain mn in | humidity % | barometer mb |
| 20260507033225 | 51 | 201 | 0.0 | 0.0 | 0.00 | 0.00 | 0.00 | 72 | 1018.5 |
| 20260507032722 | 51 | 201 | 0.0 | 0.0 | 0.00 | 0.00 | 0.00 | 71 | 1018.4 |
| 20260507032218 | 51 | 199 | 0.9 | 0.9 | 0.00 | 0.00 | 0.00 | 70 | 1018.1 |
| 20260507031715 | 51 | 202 | 0.0 | 0.0 | 0.00 | 0.00 | 0.00 | 70 | 1018.2 |
| 20260507031211 | 52 | 202 | 0.0 | 0.0 | 0.00 | 0.00 | 0.00 | 69 | 1018.3 |
| 20260507030708 | 52 | 201 | 0.0 | 0.0 | 0.00 | 0.00 | 0.00 | 69 | 1017.9 |
| 20260507030206 | 53 | 200 | 0.0 | 0.0 | 0.00 | 0.00 | 0.00 | 67 | 1018.0 |
| 20260507025703 | 53 | 199 | 0.0 | 0.9 | 0.00 | 0.00 | 0.00 | 66 | 1017.9 |
| 20260507025200 | 53 | 200 | 0.0 | 0.0 | 0.00 | 0.00 | 0.00 | 65 | 1017.9 |
| 20260507024658 | 53 | 202 | 0.9 | 0.9 | 0.00 | 0.00 | 0.00 | 65 | 1017.9 |
| 20260507024155 | 54 | 202 | 0.0 | 0.0 | 0.00 | 0.00 | 0.00 | 65 | 1017.6 |
| 20260507023650 | 54 | 202 | 0.9 | 0.9 | 0.00 | 0.00 | 0.00 | 64 | 1017.6 |
| 20260507023148 | 55 | 200 | 0.0 | 0.9 | 0.00 | 0.00 | 0.00 | 63 | 1017.4 |
| 20260507022645 | 55 | 205 | 0.9 | 0.9 | 0.00 | 0.00 | 0.00 | 63 | 1017.4 |
| 20260507022141 | 55 | 203 | 0.0 | 0.0 | 0.00 | 0.00 | 0.00 | 62 | 1017.5 |
| 20260507021637 | 56 | 168 | 1.7 | 2.6 | 0.00 | 0.00 | 0.00 | 62 | 1017.4 |
| 20260507021132 | 56 | 163 | 1.7 | 1.7 | 0.00 | 0.00 | 0.00 | 61 | 1017.3 |
| 20260507020631 | 56 | 191 | 0.0 | 0.9 | 0.00 | 0.00 | 0.00 | 61 | 1017.3 |
| 20260507020127 | 57 | 144 | 1.7 | 2.6 | 0.00 | 0.00 | 0.00 | 61 | 1017.4 |
| 20260507015626 | 57 | 205 | 0.9 | 0.9 | 0.00 | 0.00 | 0.00 | 61 | 1017.3 |
| 20260507015122 | 57 | 204 | 0.9 | 1.7 | 0.00 | 0.00 | 0.00 | 60 | 1017.4 |
| 20260507014619 | 57 | 138 | 1.7 | 1.7 | 0.00 | 0.00 | 0.00 | 61 | 1017.0 |
| 20260507014115 | 58 | 278 | 1.7 | 2.6 | 0.00 | 0.00 | 0.00 | 62 | 1016.8 |
| 20260507013612 | 58 | 185 | 0.9 | 0.9 | 0.00 | 0.00 | 0.00 | 61 | 1016.8 |
| 20260507013109 | 58 | 205 | 0.9 | 0.9 | 0.00 | 0.00 | 0.00 | 61 | 1016.7 |
| 20260507012606 | 58 | 265 | 1.7 | 1.7 | 0.00 | 0.00 | 0.00 | 60 | 1016.8 |
| 20260507012102 | 59 | 189 | 0.9 | 1.7 | 0.00 | 0.00 | 0.00 | 60 | 1016.7 |
| 20260507011600 | 59 | 195 | 1.7 | 1.7 | 0.00 | 0.00 | 0.00 | 60 | 1016.9 |
| 20260507011056 | 59 | 247 | 1.7 | 1.7 | 0.00 | 0.00 | 0.00 | 59 | 1016.7 |
| 20260507010550 | 59 | 226 | 0.9 | 1.7 | 0.00 | 0.00 | 0.00 | 59 | 1016.8 |
| 20260507010047 | 59 | 202 | 0.9 | 0.9 | 0.00 | 0.00 | 0.00 | 59 | 1016.7 |
| 20260507005544 | 59 | 190 | 0.9 | 0.9 | 0.00 | 0.00 | 0.00 | 58 | 1016.7 |
| 20260507005040 | 60 | 240 | 0.9 | 1.7 | 0.00 | 0.00 | 0.00 | 58 | 1016.6 |
| 20260507004538 | 60 | 229 | 1.7 | 2.6 | 0.00 | 0.00 | 0.00 | 57 | 1016.6 |
| 20260507004035 | 60 | 157 | 1.7 | 2.6 | 0.00 | 0.00 | 0.00 | 57 | 1016.6 |
| 20260507003530 | 60 | 42 | 1.7 | 2.6 | 0.00 | 0.00 | 0.00 | 56 | 1016.6 |
| 20260507003020 | 60 | 197 | 0.0 | 0.0 | 0.00 | 0.00 | 0.00 | 56 | 1016.4 |
| 20260507002516 | 60 | 49 | 0.9 | 2.6 | 0.00 | 0.00 | 0.00 | 55 | 1016.3 |
| 20260507002012 | 61 | 227 | 0.9 | 0.9 | 0.00 | 0.00 | 0.00 | 55 | 1016.5 |
| 20260507001509 | 61 | 92 | 2.6 | 3.5 | 0.00 | 0.00 | 0.00 | 53 | 1016.2 |
| 20260507001001 | 62 | 201 | 2.6 | 3.5 | 0.00 | 0.00 | 0.00 | 53 | 1016.4 |
| 20260507000457 | 63 | 86 | 1.7 | 2.6 | 0.00 | 0.00 | 0.00 | 53 | 1016.2 |
| 20260506235952 | 63 | 359 | 3.5 | 5.2 | 0.00 | 0.00 | 0.00 | 51 | 1016.2 |
| 20260506235450 | 62 | 64 | 0.9 | 0.9 | 0.00 | 0.00 | 0.00 | 53 | 1016.1 |
| 20260506234946 | 62 | 104 | 0.9 | 3.5 | 0.00 | 0.00 | 0.00 | 53 | 1015.9 |
| 20260506234443 | 62 | 131 | 3.5 | 7.0 | 0.00 | 0.00 | 0.00 | 51 | 1016.0 |
| 20260506233941 | 63 | 75 | 4.3 | 6.1 | 0.00 | 0.00 | 0.00 | 51 | 1016.0 |
| 20260506233437 | 63 | 122 | 2.6 | 3.5 | 0.00 | 0.00 | 0.00 | 51 | 1016.0 |
| 20260506232934 | 63 | 110 | 5.2 | 7.0 | 0.00 | 0.00 | 0.00 | 51 | 1015.8 |
| 20260506232430 | 63 | 56 | 3.5 | 7.0 | 0.00 | 0.00 | 0.00 | 51 | 1015.8 |
| 20260506231926 | 64 | 211 | 2.6 | 5.2 | 0.00 | 0.00 | 0.00 | 51 | 1015.8 |
| 20260506231423 | 63 | 211 | 0.9 | 2.6 | 0.00 | 0.00 | 0.00 | 51 | 1015.9 |
| 20260506230921 | 62 | 225 | 0.9 | 0.9 | 0.00 | 0.00 | 0.00 | 53 | 1015.7 |
| 20260506230417 | 63 | 159 | 2.6 | 3.5 | 0.00 | 0.00 | 0.00 | 50 | 1015.7 |
| 20260506225914 | 64 | 108 | 3.5 | 5.2 | 0.00 | 0.00 | 0.00 | 51 | 1015.5 |
| 20260506225411 | 63 | 239 | 0.9 | 0.9 | 0.00 | 0.00 | 0.00 | 50 | 1015.7 |
| 20260506224908 | 64 | 54 | 3.5 | 6.1 | 0.00 | 0.00 | 0.00 | 50 | 1015.8 |
| 20260506224405 | 64 | 350 | 2.6 | 3.5 | 0.00 | 0.00 | 0.00 | 49 | 1015.4 |
| 20260506223901 | 64 | 207 | 2.6 | 5.2 | 0.00 | 0.00 | 0.00 | 50 | 1015.3 |
| 20260506223357 | 64 | 230 | 0.9 | 0.9 | 0.00 | 0.00 | 0.00 | 50 | 1015.4 |
| 20260506222854 | 64 | 40 | 5.2 | 7.8 | 0.00 | 0.00 | 0.00 | 49 | 1015.1 |
| 20260506222350 | 64 | 49 | 1.7 | 6.1 | 0.00 | 0.00 | 0.00 | 51 | 1015.1 |
| 20260506221848 | 65 | 51 | 3.5 | 6.1 | 0.00 | 0.00 | 0.00 | 48 | 1015.2 |
| 20260506221345 | 64 | 212 | 2.6 | 3.5 | 0.00 | 0.00 | 0.00 | 50 | 1015.1 |
| 20260506220842 | 64 | 91 | 4.3 | 6.1 | 0.00 | 0.00 | 0.00 | 51 | 1015.1 |
| 20260506220337 | 64 | 276 | 1.7 | 1.7 | 0.00 | 0.00 | 0.00 | 50 | 1015.1 |
| 20260506215834 | 63 | 231 | 2.6 | 3.5 | 0.00 | 0.00 | 0.00 | 52 | 1015.2 |
| 20260506215330 | 63 | 40 | 3.5 | 6.1 | 0.00 | 0.00 | 0.00 | 50 | 1015.2 |
| 20260506214821 | 64 | 93 | 1.7 | 2.6 | 0.00 | 0.00 | 0.00 | 51 | 1015.2 |
| 20260506214317 | 64 | 225 | 1.7 | 1.7 | 0.00 | 0.00 | 0.00 | 53 | 1015.3 |
| 20260506213816 | 64 | 20 | 2.6 | 3.5 | 0.00 | 0.00 | 0.00 | 51 | 1015.3 |
| 20260506213313 | 62 | 205 | 1.7 | 2.6 | 0.00 | 0.00 | 0.00 | 56 | 1015.7 |
| 20260506212810 | 61 | 340 | 5.2 | 7.0 | 0.00 | 0.00 | 0.00 | 55 | 1015.7 |
| 20260506212306 | 62 | 141 | 1.7 | 2.6 | 0.00 | 0.00 | 0.00 | 56 | 1015.6 |
| 20260506211800 | 64 | 153 | 2.6 | 3.5 | 0.00 | 0.00 | 0.00 | 54 | 1015.7 |
| 20260506211256 | 61 | 244 | 1.7 | 2.6 | 0.00 | 0.00 | 0.00 | 56 | 1015.6 |
| 20260506210754 | 61 | 198 | 0.9 | 0.9 | 0.00 | 0.00 | 0.00 | 56 | 1015.7 |
| 20260506210250 | 61 | 56 | 3.5 | 5.2 | 0.00 | 0.00 | 0.00 | 57 | 1015.8 |
| 20260506205748 | 61 | 189 | 3.5 | 5.2 | 0.00 | 0.00 | 0.00 | 55 | 1015.6 |
| 20260506205243 | 62 | 107 | 2.6 | 3.5 | 0.00 | 0.00 | 0.00 | 57 | 1015.9 |
| 20260506204740 | 61 | 75 | 6.1 | 7.0 | 0.00 | 0.00 | 0.00 | 57 | 1015.8 |
| 20260506204238 | 60 | 110 | 4.3 | 5.2 | 0.00 | 0.00 | 0.00 | 57 | 1015.7 |
| 20260506203736 | 60 | 207 | 0.0 | 0.9 | 0.00 | 0.00 | 0.00 | 58 | 1015.9 |
| 20260506203232 | 60 | 59 | 3.5 | 3.5 | 0.00 | 0.00 | 0.00 | 57 | 1015.9 |
| 20260506202730 | 61 | 181 | 2.6 | 2.6 | 0.00 | 0.00 | 0.00 | 57 | 1016.0 |
| 20260506202226 | 62 | 324 | 3.5 | 5.2 | 0.00 | 0.00 | 0.00 | 55 | 1015.8 |
| 20260506201723 | 62 | 226 | 4.3 | 6.1 | 0.00 | 0.00 | 0.00 | 56 | 1015.8 |
| 20260506201220 | 61 | 335 | 2.6 | 3.5 | 0.00 | 0.00 | 0.00 | 57 | 1016.0 |
| 20260506200718 | 60 | 28 | 3.5 | 3.5 | 0.00 | 0.00 | 0.00 | 57 | 1016.2 |
| 20260506200214 | 61 | 226 | 3.5 | 7.8 | 0.00 | 0.00 | 0.00 | 58 | 1016.0 |
| 20260506195710 | 62 | 111 | 1.7 | 2.6 | 0.00 | 0.00 | 0.00 | 57 | 1016.1 |
| 20260506195207 | 61 | 246 | 2.6 | 3.5 | 0.00 | 0.00 | 0.00 | 57 | 1016.1 |
| 20260506194659 | 61 | 345 | 2.6 | 2.6 | 0.00 | 0.00 | 0.00 | 57 | 1015.9 |
| 20260506194155 | 60 | 96 | 1.7 | 3.5 | 0.00 | 0.00 | 0.00 | 59 | 1016.0 |
| 20260506193653 | 60 | 334 | 3.5 | 5.2 | 0.00 | 0.00 | 0.00 | 57 | 1016.1 |
| 20260506193149 | 60 | 38 | 4.3 | 5.2 | 0.00 | 0.00 | 0.00 | 57 | 1016.0 |
| 20260506192645 | 61 | 38 | 7.8 | 9.6 | 0.00 | 0.00 | 0.00 | 56 | 1016.2 |
| 20260506192141 | 60 | 89 | 0.9 | 1.7 | 0.00 | 0.00 | 0.00 | 59 | 1016.3 |
| 20260506191634 | 60 | 244 | 1.7 | 1.7 | 0.00 | 0.00 | 0.00 | 58 | 1016.5 |
| 20260506191130 | 60 | 113 | 4.3 | 6.1 | 0.00 | 0.00 | 0.00 | 58 | 1016.4 |
| 20260506190627 | 60 | 66 | 5.2 | 7.8 | 0.00 | 0.00 | 0.00 | 57 | 1016.4 |
| 20260506190124 | 61 | 231 | 2.6 | 2.6 | 0.00 | 0.00 | 0.00 | 57 | 1016.4 |
| 20260506185621 | 62 | 188 | 1.7 | 2.6 | 0.00 | 0.00 | 0.00 | 56 | 1016.3 |
| 20260506185117 | 60 | 188 | 1.7 | 1.7 | 0.00 | 0.00 | 0.00 | 58 | 1016.5 |
| 20260506184614 | 61 | 119 | 3.5 | 5.2 | 0.00 | 0.00 | 0.00 | 55 | 1016.4 |
| 20260506184112 | 60 | 242 | 2.6 | 6.1 | 0.00 | 0.00 | 0.00 | 57 | 1016.5 |
| 20260506183608 | 60 | 188 | 1.7 | 1.7 | 0.00 | 0.00 | 0.00 | 56 | 1016.4 |
| 20260506183104 | 60 | 191 | 2.6 | 5.2 | 0.00 | 0.00 | 0.00 | 56 | 1016.7 |
| 20260506182602 | 60 | 301 | 1.7 | 2.6 | 0.00 | 0.00 | 0.00 | 56 | 1016.8 |
| 20260506182059 | 62 | 225 | 2.6 | 2.6 | 0.00 | 0.00 | 0.00 | 56 | 1016.5 |
| 20260506181557 | 62 | 73 | 3.5 | 6.1 | 0.00 | 0.00 | 0.00 | 54 | 1016.7 |
| 20260506181053 | 60 | 47 | 2.6 | 3.5 | 0.00 | 0.00 | 0.00 | 57 | 1016.8 |
| 20260506180550 | 60 | 127 | 3.5 | 3.5 | 0.00 | 0.00 | 0.00 | 58 | 1016.7 |
| 20260506180047 | 60 | 178 | 3.5 | 3.5 | 0.00 | 0.00 | 0.00 | 58 | 1016.9 |
| 20260506175543 | 60 | 55 | 4.3 | 9.6 | 0.00 | 0.00 | 0.00 | 58 | 1017.3 |
| 20260506175039 | 60 | 146 | 2.6 | 2.6 | 0.00 | 0.00 | 0.00 | 56 | 1017.2 |
| 20260506174538 | 60 | 82 | 5.2 | 8.7 | 0.00 | 0.00 | 0.00 | 56 | 1017.3 |
| 20260506174033 | 60 | 47 | 4.3 | 6.1 | 0.00 | 0.00 | 0.00 | 56 | 1017.0 |
| 20260506173531 | 61 | 181 | 6.1 | 9.6 | 0.00 | 0.00 | 0.00 | 54 | 1017.3 |
| 20260506173023 | 60 | 81 | 5.2 | 8.7 | 0.00 | 0.00 | 0.00 | 54 | 1016.9 |
| 20260506172520 | 60 | 199 | 1.7 | 3.5 | 0.00 | 0.00 | 0.00 | 55 | 1016.9 |
| 20260506172016 | 60 | 114 | 3.5 | 5.2 | 0.00 | 0.00 | 0.00 | 56 | 1017.2 |
| 20260506171513 | 60 | 133 | 4.3 | 7.8 | 0.00 | 0.00 | 0.00 | 55 | 1016.9 |
| 20260506171010 | 60 | 128 | 6.1 | 11.3 | 0.00 | 0.00 | 0.00 | 55 | 1016.9 |
| 20260506170507 | 58 | 203 | 5.2 | 9.6 | 0.00 | 0.00 | 0.00 | 57 | 1016.9 |
| 20260506170000 | 58 | 58 | 6.1 | 7.8 | 0.00 | 0.00 | 0.00 | 58 | 1016.9 |
| 20260506165458 | 59 | 50 | 8.7 | 12.2 | 0.00 | 0.00 | 0.00 | 57 | 1017.0 |
| 20260506164948 | 59 | 155 | 4.3 | 7.0 | 0.00 | 0.00 | 0.00 | 58 | 1017.5 |
| 20260506164445 | 58 | 215 | 3.5 | 6.1 | 0.00 | 0.00 | 0.00 | 60 | 1017.2 |
| 20260506163943 | 57 | 40 | 5.2 | 7.8 | 0.00 | 0.00 | 0.00 | 59 | 1017.4 |
| 20260506163438 | 57 | 66 | 7.8 | 8.7 | 0.00 | 0.00 | 0.00 | 60 | 1017.6 |
| 20260506162932 | 58 | 263 | 5.2 | 7.8 | 0.00 | 0.00 | 0.00 | 60 | 1017.5 |
| 20260506162430 | 58 | 94 | 7.0 | 9.6 | 0.00 | 0.00 | 0.00 | 58 | 1017.6 |
| 20260506161922 | 58 | 144 | 7.8 | 12.2 | 0.00 | 0.00 | 0.00 | 61 | 1017.4 |
| 20260506161420 | 58 | 111 | 5.2 | 7.0 | 0.00 | 0.00 | 0.00 | 61 | 1017.7 |
| 20260506160917 | 55 | 88 | 4.3 | 6.1 | 0.00 | 0.00 | 0.00 | 63 | 1017.6 |
| 20260506160414 | 56 | 86 | 7.8 | 9.6 | 0.00 | 0.00 | 0.00 | 63 | 1017.3 |
| 20260506155912 | 55 | 128 | 7.8 | 11.3 | 0.00 | 0.00 | 0.00 | 64 | 1017.2 |
| 20260506155408 | 54 | 78 | 2.6 | 3.5 | 0.00 | 0.00 | 0.00 | 66 | 1017.5 |
| 20260506153525 | 53 | 115 | 4.3 | 7.0 | 0.00 | 0.00 | 0.00 | 71 | 1016.9 |
| 20260506153022 | 53 | 91 | 6.1 | 8.7 | 0.00 | 0.00 | 0.00 | 71 | 1017.0 |
| 20260506152519 | 52 | 77 | 7.0 | 7.8 | 0.00 | 0.00 | 0.00 | 72 | 1017.2 |
| 20260506152017 | 52 | 86 | 9.6 | 12.2 | 0.00 | 0.00 | 0.00 | 73 | 1016.9 |
| 20260506151514 | 53 | 342 | 5.2 | 7.0 | 0.00 | 0.00 | 0.00 | 73 | 1017.2 |
| 20260506151012 | 52 | 154 | 2.6 | 3.5 | 0.00 | 0.00 | 0.00 | 74 | 1017.2 |
| 20260506150508 | 51 | 202 | 0.9 | 1.7 | 0.00 | 0.00 | 0.00 | 77 | 1017.2 |
| 20260506150005 | 51 | 78 | 4.3 | 5.2 | 0.00 | 0.00 | 0.00 | 77 | 1016.9 |
| 20260506145501 | 51 | 236 | 4.3 | 7.0 | 0.00 | 0.00 | 0.00 | 77 | 1016.6 |
| 20260506144959 | 51 | 133 | 1.7 | 2.6 | 0.00 | 0.00 | 0.00 | 78 | 1016.7 |
| 20260506144455 | 51 | 52 | 3.5 | 5.2 | 0.00 | 0.00 | 0.00 | 78 | 1016.7 |
| 20260506143953 | 50 | 241 | 1.7 | 2.6 | 0.00 | 0.00 | 0.00 | 79 | 1016.3 |
| 20260506143450 | 50 | 59 | 2.6 | 6.1 | 0.00 | 0.00 | 0.00 | 80 | 1016.2 |
| 20260506142949 | 50 | 108 | 5.2 | 8.7 | 0.00 | 0.00 | 0.00 | 80 | 1016.3 |
| 20260506142446 | 50 | 103 | 5.2 | 8.7 | 0.00 | 0.00 | 0.00 | 80 | 1016.4 |
| 20260506141944 | 50 | 236 | 2.6 | 3.5 | 0.00 | 0.00 | 0.00 | 81 | 1016.3 |
| 20260506141442 | 49 | 321 | 2.6 | 2.6 | 0.00 | 0.00 | 0.00 | 81 | 1016.2 |
| 20260506140940 | 49 | 76 | 5.2 | 6.1 | 0.00 | 0.00 | 0.00 | 81 | 1016.3 |
| 20260506140436 | 49 | 274 | 1.7 | 2.6 | 0.00 | 0.00 | 0.00 | 82 | 1016.6 |
| 20260506135933 | 49 | 64 | 4.3 | 6.1 | 0.00 | 0.00 | 0.00 | 81 | 1016.4 |
| 20260506135431 | 49 | 58 | 5.2 | 7.8 | 0.00 | 0.00 | 0.00 | 82 | 1016.8 |
| 20260506134927 | 48 | 203 | 3.5 | 5.2 | 0.00 | 0.00 | 0.00 | 83 | 1016.7 |
| 20260506134423 | 48 | 329 | 7.8 | 9.6 | 0.00 | 0.00 | 0.00 | 83 | 1016.5 |
| 20260506133920 | 48 | 29 | 3.5 | 7.0 | 0.00 | 0.00 | 0.00 | 84 | 1016.8 |
| 20260506133417 | 48 | 29 | 6.1 | 9.6 | 0.00 | 0.00 | 0.00 | 83 | 1016.5 |
| 20260506132914 | 48 | 324 | 6.1 | 8.7 | 0.00 | 0.00 | 0.00 | 83 | 1016.4 |
| 20260506132411 | 48 | 210 | 0.9 | 1.7 | 0.00 | 0.00 | 0.00 | 84 | 1016.5 |
| 20260506131908 | 48 | 167 | 1.7 | 2.6 | 0.00 | 0.00 | 0.00 | 85 | 1016.4 |
| 20260506131404 | 48 | 298 | 1.7 | 2.6 | 0.00 | 0.00 | 0.00 | 85 | 1016.2 |
| 20260506130902 | 48 | 72 | 4.3 | 7.0 | 0.00 | 0.00 | 0.00 | 84 | 1016.4 |
| 20260506130358 | 48 | 228 | 1.7 | 1.7 | 0.00 | 0.00 | 0.00 | 85 | 1016.1 |
| 20260506125856 | 48 | 261 | 3.5 | 6.1 | 0.00 | 0.00 | 0.00 | 85 | 1016.0 |
| 20260506125354 | 47 | 88 | 3.5 | 3.5 | 0.00 | 0.00 | 0.00 | 86 | 1016.4 |
| 20260506124852 | 47 | 82 | 5.2 | 8.7 | 0.00 | 0.00 | 0.00 | 86 | 1016.4 |
| 20260506124349 | 47 | 270 | 4.3 | 6.1 | 0.00 | 0.00 | 0.00 | 86 | 1016.1 |
| 20260506123847 | 47 | 324 | 3.5 | 6.1 | 0.00 | 0.00 | 0.00 | 87 | 1016.1 |
| 20260506123345 | 47 | 247 | 1.7 | 1.7 | 0.00 | 0.00 | 0.00 | 87 | 1016.0 |
| 20260506122842 | 47 | 225 | 0.9 | 1.7 | 0.00 | 0.00 | 0.00 | 87 | 1015.8 |
| 20260506122338 | 47 | 152 | 6.1 | 8.7 | 0.00 | 0.00 | 0.00 | 87 | 1015.7 |
| 20260506121837 | 47 | 25 | 3.5 | 5.2 | 0.00 | 0.00 | 0.00 | 87 | 1015.8 |
| 20260506121333 | 47 | 80 | 4.3 | 6.1 | 0.00 | 0.00 | 0.00 | 87 | 1015.7 |
| 20260506120831 | 47 | 231 | 1.7 | 2.6 | 0.00 | 0.00 | 0.00 | 86 | 1015.4 |
| 20260506120329 | 47 | 225 | 1.7 | 3.5 | 0.00 | 0.00 | 0.00 | 86 | 1015.4 |
| 20260506115825 | 47 | 9 | 4.3 | 6.1 | 0.00 | 0.00 | 0.00 | 86 | 1015.6 |
| 20260506115324 | 47 | 271 | 2.6 | 3.5 | 0.00 | 0.00 | 0.00 | 86 | 1015.5 |
| 20260506114821 | 47 | 346 | 1.7 | 2.6 | 0.00 | 0.00 | 0.00 | 86 | 1015.5 |
| 20260506114319 | 46 | 21 | 1.7 | 2.6 | 0.00 | 0.00 | 0.00 | 86 | 1015.4 |
| 20260506113817 | 46 | 222 | 1.7 | 3.5 | 0.00 | 0.00 | 0.00 | 86 | 1015.1 |
| 20260506113315 | 46 | 71 | 2.6 | 3.5 | 0.00 | 0.00 | 0.00 | 86 | 1015.0 |
| 20260506112811 | 47 | 266 | 2.6 | 3.5 | 0.00 | 0.00 | 0.00 | 85 | 1014.9 |
| 20260506112309 | 47 | 345 | 2.6 | 3.5 | 0.00 | 0.00 | 0.00 | 85 | 1014.8 |
| 20260506111806 | 47 | 80 | 3.5 | 3.5 | 0.00 | 0.00 | 0.00 | 85 | 1014.8 |
| 20260506111304 | 47 | 59 | 5.2 | 6.1 | 0.00 | 0.00 | 0.00 | 85 | 1014.7 |
| 20260506110801 | 47 | 44 | 2.6 | 2.6 | 0.00 | 0.00 | 0.00 | 85 | 1014.8 |
| 20260506110258 | 47 | 202 | 0.9 | 1.7 | 0.00 | 0.00 | 0.00 | 85 | 1014.9 |
| 20260506105754 | 47 | 67 | 4.3 | 6.1 | 0.00 | 0.00 | 0.00 | 85 | 1015.2 |
| 20260506105251 | 47 | 345 | 1.7 | 3.5 | 0.00 | 0.00 | 0.00 | 84 | 1015.5 |
| 20260506104749 | 47 | 83 | 1.7 | 2.6 | 0.00 | 0.00 | 0.00 | 84 | 1015.3 |
| 20260506104246 | 48 | 308 | 3.5 | 6.1 | 0.00 | 0.00 | 0.00 | 84 | 1015.3 |
| 20260506103744 | 48 | 353 | 3.5 | 3.5 | 0.00 | 0.00 | 0.00 | 84 | 1015.4 |
| 20260506103241 | 48 | 231 | 1.7 | 1.7 | 0.00 | 0.00 | 0.00 | 84 | 1015.3 |
| 20260506102738 | 48 | 51 | 2.6 | 3.5 | 0.00 | 0.00 | 0.00 | 84 | 1015.3 |
| 20260506102236 | 48 | 201 | 0.9 | 0.9 | 0.00 | 0.00 | 0.00 | 84 | 1015.0 |
| 20260506101733 | 48 | 225 | 1.7 | 1.7 | 0.00 | 0.00 | 0.00 | 84 | 1015.3 |
| 20260506101229 | 48 | 233 | 2.6 | 2.6 | 0.00 | 0.00 | 0.00 | 83 | 1015.5 |
| 20260506100727 | 48 | 230 | 0.0 | 0.9 | 0.00 | 0.00 | 0.00 | 84 | 1015.4 |
| 20260506100225 | 48 | 251 | 1.7 | 1.7 | 0.00 | 0.00 | 0.00 | 83 | 1015.2 |
| 20260506095724 | 48 | 231 | 0.9 | 1.7 | 0.00 | 0.00 | 0.00 | 83 | 1015.2 |
| 20260506095220 | 48 | 152 | 2.6 | 3.5 | 0.00 | 0.00 | 0.00 | 82 | 1015.4 |
| 20260506094717 | 48 | 148 | 3.5 | 6.1 | 0.00 | 0.00 | 0.00 | 82 | 1015.0 |
| 20260506094215 | 48 | 52 | 3.5 | 5.2 | 0.00 | 0.00 | 0.00 | 82 | 1014.7 |
| 20260506093714 | 48 | 227 | 0.9 | 1.7 | 0.00 | 0.00 | 0.00 | 82 | 1014.7 |
| 20260506093210 | 48 | 329 | 3.5 | 3.5 | 0.00 | 0.00 | 0.00 | 82 | 1014.4 |
| 20260506092708 | 48 | 237 | 1.7 | 1.7 | 0.00 | 0.00 | 0.00 | 82 | 1014.4 |
| 20260506092205 | 48 | 45 | 0.9 | 1.7 | 0.00 | 0.00 | 0.00 | 82 | 1014.2 |
| 20260506091703 | 48 | 337 | 2.6 | 2.6 | 0.00 | 0.00 | 0.00 | 81 | 1014.2 |
| 20260506091200 | 48 | 45 | 1.7 | 1.7 | 0.00 | 0.00 | 0.00 | 81 | 1014.5 |
| 20260506090658 | 48 | 230 | 2.6 | 2.6 | 0.00 | 0.00 | 0.00 | 81 | 1014.3 |
| 20260506090154 | 48 | 122 | 0.9 | 1.7 | 0.00 | 0.00 | 0.00 | 81 | 1013.9 |
| 20260506085651 | 48 | 225 | 1.7 | 2.6 | 0.00 | 0.00 | 0.00 | 80 | 1013.8 |
| 20260506085147 | 48 | 93 | 4.3 | 6.1 | 0.00 | 0.00 | 0.00 | 81 | 1014.2 |
| 20260506084644 | 48 | 342 | 1.7 | 1.7 | 0.00 | 0.00 | 0.00 | 80 | 1013.8 |
| 20260506084141 | 48 | 25 | 4.3 | 7.0 | 0.00 | 0.00 | 0.00 | 80 | 1013.9 |
| 20260506083638 | 48 | 22 | 3.5 | 5.2 | 0.00 | 0.00 | 0.00 | 80 | 1013.9 |
| 20260506083136 | 48 | 41 | 3.5 | 7.8 | 0.00 | 0.00 | 0.00 | 80 | 1013.7 |
| 20260506082632 | 48 | 81 | 5.2 | 6.1 | 0.00 | 0.00 | 0.00 | 80 | 1013.6 |
| 20260506082128 | 47 | 45 | 3.5 | 5.2 | 0.00 | 0.00 | 0.00 | 81 | 1013.3 |
| 20260506081626 | 47 | 216 | 2.6 | 3.5 | 0.00 | 0.00 | 0.00 | 81 | 1013.2 |
| 20260506081124 | 47 | 237 | 3.5 | 5.2 | 0.00 | 0.00 | 0.00 | 81 | 1013.0 |
| 20260506080621 | 47 | 40 | 2.6 | 3.5 | 0.00 | 0.00 | 0.00 | 81 | 1013.0 |
| 20260506080117 | 47 | 13 | 5.2 | 6.1 | 0.00 | 0.00 | 0.00 | 81 | 1012.9 |
| 20260506073101 | 48 | 129 | 1.7 | 2.6 | 0.00 | 0.00 | 0.00 | 81 | 1012.6 |
| 20260506072558 | 48 | 92 | 2.6 | 3.5 | 0.00 | 0.00 | 0.00 | 80 | 1012.7 |
| 20260506072056 | 48 | 31 | 2.6 | 3.5 | 0.00 | 0.00 | 0.00 | 80 | 1012.6 |
| 20260506071553 | 48 | 80 | 2.6 | 2.6 | 0.00 | 0.00 | 0.00 | 80 | 1012.5 |
| 20260506071051 | 48 | 305 | 3.5 | 5.2 | 0.00 | 0.00 | 0.00 | 79 | 1012.6 |
| 20260506070548 | 48 | 76 | 5.2 | 7.8 | 0.00 | 0.00 | 0.00 | 79 | 1012.5 |
| 20260506062022 | 48 | 238 | 1.7 | 1.7 | 0.00 | 0.00 | 0.00 | 77 | 1013.1 |
| 20260506061518 | 48 | 33 | 3.5 | 5.2 | 0.00 | 0.00 | 0.00 | 77 | 1012.8 |
| 20260506061016 | 48 | 203 | 1.7 | 1.7 | 0.00 | 0.00 | 0.00 | 77 | 1012.8 |
| 20260506060514 | 48 | 242 | 2.6 | 2.6 | 0.00 | 0.00 | 0.00 | 77 | 1012.7 |
| 20260506050943 | 48 | 16 | 4.3 | 7.0 | 0.00 | 0.00 | 0.00 | 79 | 1012.5 |
| 20260506050440 | 48 | 96 | 3.5 | 5.2 | 0.00 | 0.00 | 0.00 | 79 | 1012.4 |
| 20260506044930 | 48 | 136 | 4.3 | 6.1 | 0.00 | 0.00 | 0.00 | 80 | 1012.8 |
| 20260506044429 | 48 | 57 | 3.5 | 5.2 | 0.00 | 0.00 | 0.00 | 80 | 1012.8 |
| 20260506043925 | 48 | 111 | 1.7 | 2.6 | 0.00 | 0.00 | 0.00 | 82 | 1012.8 |
| 20260506043423 | 48 | 183 | 2.6 | 3.5 | 0.00 | 0.00 | 0.00 | 82 | 1012.7 |
| 20260506042920 | 48 | 229 | 1.7 | 2.6 | 0.00 | 0.00 | 0.00 | 82 | 1012.8 |
| 20260506042420 | 48 | 38 | 4.3 | 6.1 | 0.00 | 0.00 | 0.00 | 83 | 1012.6 |
| 20260506041918 | 48 | 145 | 1.7 | 1.7 | 0.00 | 0.00 | 0.00 | 83 | 1012.6 |
| 20260506041415 | 48 | 33 | 3.5 | 3.5 | 0.00 | 0.00 | 0.00 | 83 | 1012.6 |
| 20260506040912 | 48 | 81 | 4.3 | 6.1 | 0.00 | 0.00 | 0.00 | 83 | 1012.7 |
| 20260506040409 | 48 | 107 | 2.6 | 3.5 | 0.00 | 0.00 | 0.00 | 84 | 1012.8 |
| 20260506035905 | 48 | 30 | 2.6 | 6.1 | 0.00 | 0.00 | 0.00 | 84 | 1012.8 |
| 20260506035403 | 48 | 215 | 0.9 | 0.9 | 0.00 | 0.00 | 0.00 | 84 | 1012.7 |
| 20260506034859 | 48 | 341 | 2.6 | 5.2 | 0.00 | 0.00 | 0.00 | 85 | 1012.8 |
| 20260506034358 | 48 | 52 | 5.2 | 6.1 | 0.00 | 0.00 | 0.00 | 84 | 1012.6 |
| 20260506033854 | 48 | 66 | 2.6 | 5.2 | 0.00 | 0.00 | 0.00 | 85 | 1012.7 |